Regional Weather Roundup
Issued by NWS Bismarck, ND

Home | Current Version | Previous Version | Text Only | Print | Product List | Glossary On
Versions: 1 2 3 4 5 6 7 8 9 10 11 12 13 14 15 16 17 18 19 20 21 22 23 24 25 26 27 28 29 30 31 32 33 34 35 36 37 38 39 40 41 42 43 44 45 46 47 48 49 50
000
ASUS43 KBIS 300302
RWRBIS

NWR BROADCAST TEXT
NATIONAL WEATHER SERVICE BISMARCK ND
1000 PM CDT SUN MAY 29 2016

NOTE: "FAIR" INDICATES FEW OR NO CLOUDS BELOW 12,000 FEET WITH NO
SIGNIFICANT WEATHER AND/OR OBSTRUCTIONS TO VISIBILITY.


CITY           SKY/WX    TMP DP  RH WIND       PRES   REMARKS
WILLISTON      CLEAR     59  44  57 CALM      29.92R
MINOT          CLEAR     65  42  43 CALM      29.91S
MINOT AFB      CLEAR     61  48  62 E2        29.90S
BISMARCK       CLEAR     67  49  52 CALM      29.94S
DICKINSON      CLOUDY    64  40  41 E5        29.94R
GARRISON         N/A     65  47  52 CALM      29.93R
HETTINGER ARPT CLEAR     59  49  69 S8        29.98R
JAMESTOWN      CLEAR     62  47  57 N7        29.94S
CARRINGTON     FAIR      66  43  42 CALM      29.96S
HAZEN          FAIR      57  48  72 SE6       29.95R
MANDAN         FAIR      64  50  59 SW9       29.96R
OAKES            N/A    N/A N/A N/A MISG        N/A
STANLEY        FAIR      61  46  59 NW5       29.95S
$$

CITY           SKY/WX    TMP DP  RH WIND       PRES   REMARKS
GRAND FORKS    CLEAR     60  51  72 SW3       29.91R
GRAND FORKS AF CLEAR     59  49  70 W3        29.92R
DEVILS LAKE    CLEAR     61  46  57 CALM      29.94R
FARGO          CLEAR     64  50  60 CALM      29.92R
GRAFTON        FAIR      64  57  77 CALM      29.93R
GWINNER        FAIR      66  48  52 CALM      29.95S
LANGDON        FAIR      61  50  67 CALM      29.93S
$$

CITY           SKY/WX    TMP DP  RH WIND       PRES   REMARKS
ABERDEEN       CLOUDY    66  48  52 S8        29.96R
MOBRIDGE       CLOUDY    62  56  80 CALM      29.94S
BUFFALO          N/A     63  51  65 SE9       29.91R
RAPID CITY     CLEAR     61  53  75 E10       29.98R
GLASGOW        CLEAR     68  38  33 NW3       29.90S
SIDNEY         CLEAR     64  43  46 NW6       29.92R
WOLF POINT     CLEAR     62  43  49 CALM      29.90S
GLENDIVE       CLEAR     61  43  51 N9        29.96S
MILES CITY     CLEAR     68  43  40 NE7       29.92R
BAKER          CLEAR     66  43  43 CALM      29.97R
$$

CITY           SKY/WX    TMP DP  RH WIND       PRES   REMARKS
BILLINGS       PTCLDY    68  43  40 E7        29.93R
GREAT FALLS    PTCLDY    57  42  57 N9        29.97R
$$





USA.gov is the U.S. government's official web portal to all federal, state and local government web resources and services.